Location: Saint-Maurice-d�Ard�che
(44.5216°N, 4.4002°E)
Time: 23:20:22
(UTC+00:00)

IRIDIUM 103 - Pass Details

Date: 30 March 2020
Orbit: 776 x 779 km, 86.4° (Epoch: 02 June)

Event Time Altitude Azimuth Distance (km) Brightness Sun altitude
Rises 19:30:22 0° 0° (N) 3,275 7.9 -15.1°
Reaches altitude 10° 19:32:47 10° 5° (N) 2,343 7.0 -15.5°
Maximum altitude 19:37:57 57° 84° (E) 918 4.4 -16.3°
Enters shadow 19:41:51 17° 159° (SSE) 1,876 5.9 -16.9°
